sat.trackr.live / text

‹ back to catalog

HULIANWANG DIGUI-31

NORAD 64284 · 2025-121B

PAYLOAD ACTIVE UNKNOWN

§ Identity

Operator
Country
PRC
Launch date
2025-06-05
Launch site
TAISC
Launch vehicle
Mass (kg)
RCS (m²)

External: N2YO · Heavens-Above · Gunter

§ Orbital elements

Epoch: 2026-05-25T02:50:44.085984Z

Period
108.73 min
Inclination
86.5029°
Eccentricity
0.0001716
Mean motion
13.24412034 rev/d
Perigee alt
1,166.6 km
Apogee alt
1,169.2 km
Semi-major
7,546.1 km
B*
2.6734e-5
RAAN
21.4120°
Arg perigee
88.5012°
Mean anomaly
271.6318°
Rev number
4,710

§ Raw data

HULIANWANG DIGUI-311 64284U 25121B   26145.11856581  .00000026  00000+0  26734-4 0  99912 64284  86.5029  21.4120 0001716  88.5012 271.6318 13.24412034 47109

JSON: /api/v1/satellites/64284 · /tle

For live sub-satellite position, see the globe view (requires WebGL).

§ Visibility from observer

Set your observer location to see the next 7 days of passes ≥ 10°. The values pass through the URL so the page stays shareable.

No JS? Fill the form by hand. The geolocation button needs JavaScript.